RH
24 25 23 19 16 16 15 15 16 15 14 15 17 18 19 20 21 23 23 24 25 24 25 32 40 43 45 50 53 56 58 60 59 63 62 67 67 60 57 62 66 66 66
22 22 22 21 19 14 15 16 15 15 14 14 15 15 16 18 19 21 22 23 25 26 30 34 38 42 46 51 54 55 57 62 64 64 67 71 72 66 58 60 60 60 62
23 22 20 20 17 13 14 16 14 15 14 13 12 12 13 14 17 19 21 22 26 27 30 33 37 41 46 49 52 54 56 57 60 64 70 73 79 72 62 64 60 60 59
23 19 16 15 14 13 14 15 15 16 15 14 13 13 13 14 16 19 21 23 27 30 32 34 38 45 49 51 50 50 53 53 54 60 67 70 86 77 64 61 62 59 60
25 21 19 18 15 14 15 15 16 18 17 17 16 14 15 16 17 20 23 29 30 35 38 39 43 51 51 52 53 53 51 53 54 59 59 65 74 69 63 58 59 60 63
21 19 18 17 15 15 16 16 17 19 19 20 18 15 14 15 17 20 24 29 33 39 43 46 48 52 56 57 58 59 57 58 61 60 56 59 63 62 62 60 61 65 70
21 18 18 18 17 17 17 18 19 21 23 22 21 18 15 15 16 19 23 30 36 39 43 46 51 53 59 63 63 65 67 64 64 62 58 61 63 65 65 67 69 73 73
19 18 18 18 17 17 18 19 22 27 28 26 24 20 16 15 16 19 24 32 42 41 42 46 51 58 65 66 66 67 70 72 72 69 65 63 67 71 74 74 77 78 82
24 22 21 21 20 21 23 22 27 31 32 29 26 21 18 16 16 19 25 33 40 43 48 49 55 61 67 71 69 70 74 76 74 72 72 68 72 76 79 82 84 87 91
37 34 32 28 26 30 30 29 29 34 33 30 27 24 20 18 16 20 26 32 37 49 53 56 61 65 71 75 76 74 74 72 71 74 73 73 72 80 83 88 89 92 95
43 52 45 36 33 32 34 31 32 30 30 29 27 25 22 19 18 21 25 30 34 43 50 52 62 66 69 77 78 80 81 83 79 79 74 73 75 87 91 93 94 97 97
40 44 51 56 53 40 36 35 35 34 32 30 28 26 22 20 20 21 24 26 32 37 41 43 55 68 69 77 78 78 80 83 85 82 77 73 77 91 95 97 97 97 96
42 42 43 53 56 54 43 38 36 33 31 28 29 26 23 21 21 20 23 24 28 33 36 38 50 67 68 78 80 75 79 83 88 87 86 80 77 85 98 97 98 98 98
42 41 43 52 57 52 52 40 39 37 32 30 26 26 25 23 23 22 23 23 26 31 34 34 43 58 69 80 84 84 85 88 91 90 87 86 87 93 98 98 99 96 95
46 44 45 48 53 55 53 51 35 36 36 32 28 27 26 26 25 23 24 25 26 27 30 35 41 51 71 84 90 90 89 90 91 93 91 89 94 92 94 98 95 94 93
43 49 49 48 47 48 50 52 52 38 38 37 33 31 30 28 25 23 24 24 24 25 30 40 49 57 71 84 89 93 93 93 93 95 95 94 96 94 94 96 96 95 93
49 48 53 52 49 45 48 47 51 51 44 38 39 38 34 31 27 22 22 23 27 32 42 49 60 68 72 81 90 95 95 95 96 95 95 97 99 99 98 94 94 95 92
55 54 53 52 49 48 47 46 55 61 57 45 43 40 37 35 30 26 27 29 34 40 50 54 68 74 84 91 90 96 96 98 98 99 98 97 98 97 99 100 98 99 98
61 59 59 59 54 53 45 44 45 66 65 50 48 43 39 37 31 30 32 35 39 46 50 58 70 77 90 95 93 97 98 98 98 97 99 99 97 97 97 100 99 96 96
66 66 67 65 62 58 54 46 46 46 69 61 52 48 44 40 34 36 38 40 44 49 52 56 67 79 95 96 98 99 99 99 98 99 98 97 97 97 99 96 95 95 94
72 70 68 72 68 69 65 54 47 50 57 70 68 51 48 42 39 40 41 42 48 51 58 60 64 84 99 99 98 99 99 99 99 98 97 98 95 98 98 95 92 89 88
85 82 80 76 78 76 73 68 57 56 69 92 77 60 54 46 43 42 40 46 51 53 62 63 76 84 94 96 98 98 98 99 99 98 98 97 96 94 93 89 87 88 85
83 86 90 87 82 83 82 85 67 59 57 80 70 79 59 50 45 41 45 50 55 54 66 73 78 82 87 94 97 97 97 96 98 99 97 95 93 91 89 88 86 79 75
94 92 88 92 95 91 84 83 79 76 73 79 84 75 70 58 49 41 48 52 56 67 71 88 73 78 85 92 98 97 96 94 96 99 98 97 94 91 86 85 85 84 81
95 97 97 97 96 97 89 94 83 76 86 78 98 96 77 67 58 55 49 57 71 67 71 80 84 79 81 91 96 97 97 97 96 96 96 96 96 94 93 90 87 82 82
84 90 95 97 97 97 97 90 89 82 82 83 95 92 91 79 66 60 56 55 71 70 88 85 85 76 69 88 95 98 95 95 95 95 95 95 96 96 95 94 92 88 83